When you browse on this site, cookies collect data to enhance your experience and personalize the content and advertising you see.
Visit our Privacy Policy to learn more. By continuing to use the site, you agree to this use of cookies and data.
  • In Portugal
  • List of Countries
  • For 7 days
  • Water Temperature
  • Satellite Maps
  • Weather Map
  • Weather Widgets
  • user-avatar
    Login

    Hourly Weather Pomorie

    Today, 19 February, Tuesday

    Time Temperature Precipitation Wind Pressure Humidity
    00:00 +8°C° 0 mm 1 mps 768 mmHg 79%
    01:00 +8°C° 0 mm 1 mps 768 mmHg 80%
    02:00 +8°C° 0 mm 1 mps 768 mmHg 82%
    03:00 +8°C° 0 mm 1 mps 768 mmHg 83%
    04:00 +8°C° 0 mm 1 mps 768 mmHg 84%
    05:00 +7°C° 0 mm 1 mps 768 mmHg 84%
    06:00 +7°C° 0 mm 2 mps 768 mmHg 84%
    07:00 +7°C° 0 mm 2 mps 768 mmHg 84%
    08:00 +7°C° 0 mm 2 mps 768 mmHg 84%
    09:00 +9°C° 0 mm 2 mps 768 mmHg 78%
    10:00 +10°C° 0 mm 3 mps 768 mmHg 71%
    11:00 +12°C° 0 mm 3 mps 768 mmHg 65%
    12:00 +12°C° 0 mm 3 mps 768 mmHg 63%
    13:00 +13°C° 0 mm 3 mps 767 mmHg 61%
    14:00 +13°C° 0 mm 4 mps 767 mmHg 59%
    15:00 +13°C° 0 mm 4 mps 767 mmHg 63%
    16:00 +12°C° 0 mm 4 mps 766 mmHg 67%
    17:00 +10°C° 0 mm 5 mps 766 mmHg 72%
    18:00 +10°C° 0 mm 4 mps 766 mmHg 77%
    19:00 +8°C° 0 mm 4 mps 766 mmHg 82%
    20:00 +7°C° 0 mm 4 mps 766 mmHg 87%
    21:00 +8°C° 0 mm 3 mps 766 mmHg 88%
    22:00 +8°C° 0 mm 3 mps 766 mmHg 88%
    23:00 +8°C° 0 mm 3 mps 766 mmHg 88%

    Tomorrow, 20 February, Wednesday

    Time Temperature Precipitation Wind Pressure Humidity
    00:00 +8°C° 0 mm 2 mps 766 mmHg 88%
    01:00 +7°C° 0 mm 2 mps 766 mmHg 87%
    02:00 +7°C° 0 mm 2 mps 765 mmHg 87%
    03:00 +7°C° 0 mm 2 mps 765 mmHg 86%
    04:00 +7°C° 0 mm 2 mps 765 mmHg 86%
    05:00 +7°C° 0 mm 2 mps 764 mmHg 85%
    06:00 +7°C° 0 mm 2 mps 764 mmHg 83%
    07:00 +7°C° 0 mm 2 mps 765 mmHg 82%
    08:00 +7°C° 0 mm 2 mps 765 mmHg 80%
    09:00 +9°C° 0 mm 3 mps 765 mmHg 73%
    10:00 +11°C° 0 mm 3 mps 765 mmHg 65%
    11:00 +13°C° 0 mm 3 mps 764 mmHg 58%
    12:00 +14°C° 0 mm 3 mps 764 mmHg 54%
    13:00 +16°C° 0 mm 3 mps 764 mmHg 49%
    14:00 +17°C° 0 mm 2 mps 763 mmHg 45%
    15:00 +17°C° 0 mm 2 mps 763 mmHg 46%
    16:00 +16°C° 0 mm 2 mps 763 mmHg 48%
    17:00 +16°C° 0 mm 2 mps 763 mmHg 49%
    18:00 +14°C° 0 mm 2 mps 763 mmHg 52%
    19:00 +13°C° 0 mm 2 mps 764 mmHg 54%
    20:00 +11°C° 0 mm 3 mps 764 mmHg 57%
    21:00 +10°C° 0 mm 3 mps 764 mmHg 60%
    22:00 +10°C° 0 mm 3 mps 765 mmHg 63%
    23:00 +8°C° 0 mm 4 mps 765 mmHg 66%

    Day after tomorrow, 21 February, Thursday

    Time Temperature Precipitation Wind Pressure Humidity
    00:00 +8°C° 0 mm 4 mps 765 mmHg 68%
    01:00 +8°C° 0 mm 5 mps 766 mmHg 70%
    02:00 +8°C° 0 mm 5 mps 766 mmHg 72%
    03:00 +7°C° 0 mm 5 mps 766 mmHg 73%
    04:00 +7°C° 0 mm 5 mps 766 mmHg 74%
    05:00 +6°C° 0 mm 4 mps 766 mmHg 75%
    06:00 +6°C° 0 mm 4 mps 767 mmHg 75%
    07:00 +6°C° 0 mm 4 mps 768 mmHg 76%
    08:00 +7°C° 0 mm 3 mps 768 mmHg 76%
    09:00 +8°C° 0 mm 3 mps 768 mmHg 71%
    10:00 +9°C° 0 mm 3 mps 768 mmHg 65%
    11:00 +12°C° 0 mm 2 mps 769 mmHg 60%
    12:00 +12°C° 0 mm 2 mps 768 mmHg 57%
    13:00 +13°C° 0 mm 1 mps 768 mmHg 55%
    14:00 +14°C° 0 mm 1 mps 768 mmHg 52%
    15:00 +13°C° 0 mm 1 mps 768 mmHg 54%
    16:00 +13°C° 0 mm 2 mps 768 mmHg 56%
    17:00 +12°C° 0 mm 2 mps 768 mmHg 58%
    18:00 +12°C° 0 mm 2 mps 768 mmHg 63%
    19:00 +10°C° 0 mm 2 mps 768 mmHg 68%
    20:00 +9°C° 0 mm 2 mps 768 mmHg 73%
    21:00 +8°C° 0 mm 2 mps 768 mmHg 73%
    22:00 +8°C° 0 mm 2 mps 768 mmHg 73%
    23:00 +8°C° 0 mm 2 mps 768 mmHg 74%

    22 February, Friday

    Time Temperature Precipitation Wind Pressure Humidity
    00:00 +8°C° 0 mm 2 mps 767 mmHg 72%
    01:00 +8°C° 0 mm 3 mps 767 mmHg 71%
    02:00 +8°C° 0 mm 3 mps 767 mmHg 69%
    03:00 +8°C° 0 mm 3 mps 766 mmHg 70%
    04:00 +7°C° 0 mm 3 mps 766 mmHg 70%
    05:00 +7°C° 0 mm 3 mps 765 mmHg 71%
    06:00 +7°C° 0.1 mm 3 mps 765 mmHg 72%
    07:00 +7°C° 0.1 mm 3 mps 764 mmHg 73%
    08:00 +6°C° 0.1 mm 4 mps 764 mmHg 74%
    09:00 +7°C° 0.4 mm 4 mps 764 mmHg 74%
    10:00 +7°C° 0.4 mm 4 mps 763 mmHg 73%
    11:00 +7°C° 0.4 mm 4 mps 763 mmHg 73%
    12:00 +7°C° 0.4 mm 4 mps 762 mmHg 74%
    13:00 +7°C° 0.4 mm 5 mps 762 mmHg 75%
    14:00 +7°C° 0.4 mm 5 mps 761 mmHg 76%
    15:00 +7°C° 0.2 mm 5 mps 761 mmHg 77%
    16:00 +7°C° 0.2 mm 4 mps 760 mmHg 78%
    17:00 +8°C° 0.2 mm 4 mps 760 mmHg 80%
    18:00 +7°C° 0.2 mm 5 mps 760 mmHg 81%
    19:00 +7°C° 0.2 mm 5 mps 761 mmHg 82%
    20:00 +7°C° 0.2 mm 6 mps 761 mmHg 83%
    21:00 +4°C° 0.3 mm 8 mps 762 mmHg 82%
    22:00 +2°C° 0.3 mm 10 mps 762 mmHg 82%
    23:00 -1°C° 0.3 mm 12 mps 763 mmHg 81%

    23 February, Saturday

    Time Temperature Precipitation Wind Pressure Humidity
    00:00 -2°C° 0.4 mm 12 mps 764 mmHg 81%
    01:00 -2°C° 0.4 mm 13 mps 765 mmHg 81%
    02:00 -4°C° 0.4 mm 13 mps 766 mmHg 81%
    03:00 -5°C° 0.3 mm 13 mps 766 mmHg 80%
    04:00 -7°C° 0.3 mm 13 mps 767 mmHg 79%
    05:00 -9°C° 0.3 mm 13 mps 768 mmHg 78%
    06:00 -9°C° 0.1 mm 13 mps 769 mmHg 74%
    07:00 -9°C° 0.1 mm 13 mps 770 mmHg 69%
    08:00 -8°C° 0.1 mm 12 mps 771 mmHg 65%
    09:00 -8°C° 0 mm 12 mps 771 mmHg 63%
    10:00 -7°C° 0 mm 11 mps 772 mmHg 60%
    11:00 -7°C° 0 mm 11 mps 772 mmHg 58%
    12:00 -7°C° 0 mm 11 mps 772 mmHg 56%
    13:00 -6°C° 0 mm 11 mps 772 mmHg 55%
    14:00 -6°C° 0 mm 11 mps 772 mmHg 53%
    15:00 -5°C° 0 mm 10 mps 772 mmHg 53%
    16:00 -5°C° 0 mm 10 mps 772 mmHg 52%
    17:00 -5°C° 0 mm 10 mps 772 mmHg 52%
    18:00 -5°C° 0 mm 10 mps 772 mmHg 53%
    19:00 -5°C° 0 mm 9 mps 772 mmHg 54%
    20:00 -6°C° 0 mm 9 mps 773 mmHg 55%
    21:00 -6°C° 0 mm 9 mps 773 mmHg 55%
    22:00 -6°C° 0 mm 9 mps 772 mmHg 55%
    23:00 -6°C° 0 mm 9 mps 772 mmHg 55%

    24 February, Sunday

    Time Temperature Precipitation Wind Pressure Humidity
    00:00 -6°C° 0 mm 9 mps 772 mmHg 56%
    01:00 -8°C° 0 mm 9 mps 772 mmHg 57%
    02:00 -8°C° 0 mm 9 mps 771 mmHg 58%
    03:00 -8°C° 0 mm 9 mps 771 mmHg 58%
    04:00 -8°C° 0 mm 9 mps 771 mmHg 59%
    05:00 -8°C° 0 mm 10 mps 771 mmHg 60%
    06:00 -8°C° 0 mm 10 mps 771 mmHg 59%
    07:00 -8°C° 0 mm 10 mps 771 mmHg 59%
    08:00 -8°C° 0 mm 10 mps 771 mmHg 58%
    09:00 -7°C° 0 mm 10 mps 771 mmHg 55%
    10:00 -5°C° 0 mm 10 mps 771 mmHg 51%
    11:00 -4°C° 0 mm 10 mps 771 mmHg 48%
    12:00 -4°C° 0 mm 10 mps 771 mmHg 47%
    13:00 -3°C° 0 mm 10 mps 770 mmHg 47%
    14:00 -3°C° 0 mm 10 mps 770 mmHg 46%
    15:00 -3°C° 0 mm 10 mps 770 mmHg 48%
    16:00 -3°C° 0 mm 10 mps 770 mmHg 50%
    17:00 -4°C° 0 mm 10 mps 770 mmHg 52%
    18:00 -4°C° 0 mm 10 mps 770 mmHg 55%
    19:00 -5°C° 0 mm 10 mps 770 mmHg 57%
    20:00 -5°C° 0 mm 10 mps 771 mmHg 60%
    21:00 -5°C° 0.1 mm 10 mps 770 mmHg 61%
    22:00 -7°C° 0.1 mm 10 mps 770 mmHg 62%
    23:00 -7°C° 0.1 mm 10 mps 770 mmHg 64%
    Show more